User: anonymous   Login
Location: Unspecified
(0.0000°N, 0.0000°E)
Time: 07:03:07
(UTC+00:00)
Language:

Transit 2A Rocket - Orbit

View from above orbital plane
View from above orbital plane
View from above satellite
View from above satellite

Ground track
Ground track

The orbit data is extracted from the following two-line orbital elements,

1 00047U 60007C   21292.69832538  .00000074  00000-0  41093-4 0  9996
2 00047  66.6645 286.7519 0233657 304.2329  53.6833 14.42181735205228
Epoch (UTC): 19 October 2021 16:45:35
Eccentricity: 0.0233657
inclination: 66.6645°
perigee height: 585 km
apogee height: 918 km
right ascension of ascending node: 286.7519°
argument of perigee: 304.2329°
revolutions per day: 14.42181735
mean anomaly at epoch: 53.6833°
orbit number at epoch: 20522

The dashed part of the orbit path shows where the satellite is in the earth's shadow,  

DLR